Probability
0 0 0 0 0 0 0 0 0 0 0 0 0 0 0 0 0 3 3 3 0 0 3 3 0 0 6 6 3 3 0 0 0 0 0 0 0 0 0 0 0 0 0 0
0 0 0 0 0 0 0 0 0 0 0 0 0 0 0 0 0 3 3 3 0 0 0 3 3 0 3 6 6 3 0 0 0 0 0 0 0 0 0 0 0 0 0 0
0 0 0 0 0 0 0 0 0 0 0 0 0 0 0 0 0 3 3 3 0 0 0 0 3 3 6 6 6 6 0 0 0 0 0 0 0 0 0 0 0 0 0 0
0 0 0 0 0 0 0 0 0 0 0 0 0 0 0 0 0 0 3 3 0 0 0 0 3 3 3 6 6 3 3 0 0 0 0 0 0 0 0 0 0 0 0 0
0 0 0 0 0 0 0 0 0 0 0 0 0 0 0 0 0 0 0 3 3 3 0 0 3 0 3 3 3 3 3 0 0 0 0 0 0 0 0 0 0 0 0 0
0 0 0 0 0 0 0 0 0 0 0 0 0 0 0 0 0 0 0 3 3 3 0 0 0 0 0 3 3 3 3 0 0 0 0 0 0 0 0 0 0 0 0 0
0 0 0 0 0 0 0 0 0 0 0 0 0 0 0 0 0 0 0 3 3 3 0 0 0 0 0 3 0 0 0 0 0 0 0 0 0 0 0 0 0 0 0 0
0 0 0 0 0 0 0 0 0 0 0 0 0 0 0 0 0 0 0 0 0 0 0 0 0 0 0 0 0 0 0 0 0 0 0 0 0 0 0 0 0 0 0 0
0 0 0 0 0 0 0 0 0 0 0 0 0 0 0 0 0 0 0 0 0 0 0 0 0 0 0 0 0 0 0 0 0 0 3 0 0 0 0 0 0 0 0 0
0 0 0 0 0 0 0 0 0 0 0 0 0 0 0 0 0 0 0 0 0 0 0 0 0 0 0 0 0 0 0 0 0 0 0 0 0 0 0 0 0 0 0 0
0 0 0 0 0 0 0 0 0 0 0 0 0 0 0 0 0 0 0 0 0 0 0 0 0 0 0 0 0 0 0 0 0 0 0 0 0 0 0 0 0 0 0 0
0 0 0 0 0 0 0 0 0 0 0 0 0 0 0 0 0 0 0 0 0 0 0 0 0 0 0 0 0 0 0 0 0 0 0 0 0 0 0 0 0 0 0 0
0 0 0 0 0 0 0 0 0 0 0 0 0 0 0 0 0 0 0 0 0 0 0 0 0 0 0 0 0 0 0 0 0 0 0 0 0 0 0 0 0 0 0 0
0 0 0 0 0 0 0 0 0 0 0 0 0 0 0 0 0 0 0 0 0 0 0 0 0 0 0 0 0 0 0 0 0 0 0 0 0 0 0 0 0 0 0 0
0 0 0 0 0 0 0 0 0 0 0 0 0 0 0 0 0 0 0 0 0 0 0 0 0 0 0 0 0 0 0 0 0 0 0 0 0 0 0 0 0 0 0 0
0 0 0 0 0 0 0 0 0 0 0 0 0 0 0 0 0 0 0 0 0 0 0 0 0 0 0 0 0 0 0 0 0 0 0 0 0 0 0 0 0 0 0 0
0 0 0 0 0 0 0 0 0 0 0 0 0 0 0 0 0 0 0 0 0 0 0 0 0 0 0 0 0 0 0 0 0 0 0 0 0 0 0 0 0 0 0 0
0 0 0 0 0 0 0 0 0 0 0 0 0 0 0 0 0 0 0 0 0 0 0 0 0 0 0 0 0 0 0 0 0 0 0 0 0 0 0 0 0 0 0 0
0 0 0 0 0 0 0 0 0 0 0 0 0 0 0 0 0 0 0 0 0 0 0 0 0 0 0 0 0 0 0 0 0 0 0 0 0 0 0 0 0 0 0 0
0 0 0 0 0 0 0 0 0 0 0 0 0 0 0 0 0 0 0 0 0 0 0 0 0 0 0 0 0 0 0 0 0 0 0 0 0 0 0 0 0 0 0 0
0 0 0 0 0 0 0 0 0 0 0 0 0 0 0 0 0 0 0 0 0 0 0 0 0 0 0 0 0 0 0 0 0 0 0 0 0 0 0 0 0 0 0 0
0 0 0 0 0 0 0 0 0 0 0 0 0 0 0 0 0 0 0 0 0 0 0 0 0 0 0 0 0 0 0 0 0 0 0 0 0 0 0 0 0 0 0 0
0 0 0 0 0 0 0 0 0 0 0 0 0 0 0 0 0 0 0 0 0 0 0 0 0 0 0 0 0 0 0 0 0 0 0 0 0 0 0 0 0 0 0 0
0 0 0 0 0 0 0 0 0 0 0 0 0 0 0 0 0 0 0 0 0 0 0 0 0 0 0 0 0 0 0 0 0 0 0 0 0 0 0 0 0 0 0 0
0 0 0 0 0 0 0 0 0 0 0 0 0 0 0 0 0 0 0 0 0 0 0 0 0 0 0 0 0 0 0 0 0 0 0 0 0 0 0 0 0 0 0 0
0 0 0 0 0 0 0 0 0 0 0 0 0 0 0 0 0 0 0 0 0 0 0 0 0 0 0 0 0 0 0 0 0 0 0 0 0 0 0 0 0 0 0 0
0 0 0 0 0 0 0 0 0 0 0 0 0 0 0 0 0 0 0 0 0 0 0 0 0 0 0 0 0 0 0 0 0 0 0 0 0 0 0 0 0 0 0 0
Height
5808 5808 5809 5809 5810 5811 5812 5813 5814 5816 5817 5820 5820 5821 5822 5823 5824 5825 5827 5828 5829 5830 5831 5832 5833 5834 5834 5835 5836 5837 5837 5838 5839 5839 5840 5840 5840 5839 5839 5839 5840 5840 5840 5840
5802 5803 5802 5803 5804 5805 5806 5807 5808 5810 5812 5814 5815 5816 5817 5818 5819 5820 5822 5823 5825 5826 5827 5828 5829 5830 5831 5831 5832 5833 5834 5835 5835 5836 5836 5836 5836 5836 5836 5836 5836 5836 5836 5836
5796 5796 5796 5797 5799 5799 5800 5801 5802 5803 5807 5807 5808 5810 5811 5812 5814 5815 5816 5818 5820 5821 5822 5823 5824 5825 5826 5827 5828 5829 5830 5831 5831 5832 5832 5833 5833 5833 5833 5833 5833 5833 5833 5833
5789 5790 5789 5794 5793 5792 5793 5794 5795 5797 5799 5800 5802 5803 5804 5806 5808 5809 5811 5812 5814 5815 5817 5818 5819 5820 5821 5823 5824 5825 5826 5827 5827 5828 5828 5828 5829 5829 5829 5829 5829 5829 5829 5829
5782 5782 5783 5786 5786 5786 5786 5788 5789 5791 5793 5794 5795 5797 5798 5800 5801 5803 5805 5807 5808 5810 5811 5812 5813 5815 5816 5817 5819 5820 5821 5822 5823 5823 5824 5824 5824 5824 5824 5825 5825 5825 5824 5824
5775 5775 5777 5781 5780 5780 5781 5782 5783 5784 5786 5788 5789 5790 5793 5794 5795 5797 5799 5801 5802 5804 5805 5806 5808 5809 5811 5812 5813 5815 5816 5817 5818 5818 5819 5819 5820 5820 5820 5820 5820 5820 5820 5819
5769 5769 5770 5774 5774 5774 5776 5778 5778 5779 5780 5782 5783 5785 5787 5787 5789 5791 5792 5794 5796 5797 5799 5801 5802 5803 5805 5806 5808 5809 5810 5811 5813 5813 5814 5814 5815 5815 5815 5815 5815 5815 5815 5814
5762 5763 5766 5767 5767 5768 5769 5770 5771 5773 5775 5776 5778 5779 5780 5781 5782 5784 5786 5787 5789 5791 5793 5794 5795 5797 5798 5800 5802 5803 5804 5806 5807 5808 5809 5809 5809 5810 5810 5810 5810 5810 5810 5809
5757 5759 5759 5759 5760 5761 5762 5764 5765 5767 5769 5770 5772 5773 5773 5775 5776 5778 5779 5781 5782 5784 5786 5788 5789 5791 5792 5794 5795 5797 5798 5800 5801 5802 5803 5803 5804 5804 5804 5804 5804 5804 5804 5803
5749 5751 5752 5752 5753 5754 5755 5757 5759 5761 5763 5764 5765 5766 5767 5769 5770 5771 5772 5774 5775 5777 5779 5781 5782 5784 5785 5787 5789 5790 5792 5793 5795 5796 5797 5797 5798 5798 5798 5798 5798 5798 5797 5797
5742 5744 5745 5746 5747 5748 5749 5751 5753 5755 5756 5757 5759 5759 5761 5762 5763 5764 5765 5766 5768 5770 5771 5773 5775 5777 5778 5780 5781 5783 5785 5787 5788 5789 5790 5791 5791 5791 5792 5792 5791 5791 5791 5790
5735 5737 5738 5740 5741 5742 5743 5745 5747 5749 5750 5751 5751 5753 5754 5755 5755 5756 5757 5759 5760 5762 5764 5765 5767 5769 5770 5772 5774 5776 5778 5779 5781 5782 5783 5783 5784 5784 5784 5784 5784 5784 5783 5782
5728 5729 5731 5732 5734 5735 5736 5738 5740 5742 5743 5744 5745 5746 5747 5747 5748 5749 5750 5751 5752 5754 5755 5757 5759 5761 5763 5764 5766 5768 5770 5771 5773 5774 5775 5776 5776 5777 5777 5777 5776 5776 5775 5774
5719 5721 5723 5725 5726 5727 5729 5730 5732 5734 5735 5736 5737 5738 5739 5739 5740 5741 5742 5742 5744 5745 5747 5749 5750 5752 5754 5755 5757 5759 5761 5763 5764 5765 5766 5767 5768 5769 5769 5769 5769 5768 5768 5766
5711 5713 5715 5717 5718 5720 5721 5722 5724 5726 5727 5728 5729 5730 5730 5731 5732 5732 5733 5734 5735 5737 5738 5739 5741 5743 5745 5746 5748 5750 5752 5754 5755 5757 5758 5759 5759 5760 5760 5760 5760 5760 5759 5758
5703 5704 5706 5708 5710 5711 5713 5714 5716 5717 5719 5720 5721 5721 5722 5723 5724 5724 5725 5726 5727 5728 5729 5730 5732 5734 5735 5737 5739 5741 5743 5745 5746 5747 5749 5749 5750 5750 5750 5751 5750 5750 5749 5748
5694 5695 5697 5699 5701 5703 5704 5705 5707 5708 5710 5711 5712 5713 5713 5714 5715 5716 5717 5717 5718 5719 5721 5722 5723 5724 5726 5727 5729 5731 5733 5735 5736 5738 5739 5739 5740 5740 5741 5741 5740 5740 5739 5738
5684 5686 5688 5690 5692 5693 5695 5696 5698 5699 5700 5701 5702 5703 5704 5705 5706 5707 5708 5709 5710 5711 5711 5712 5714 5715 5716 5718 5719 5721 5723 5725 5726 5727 5728 5729 5730 5730 5730 5730 5730 5729 5728 5727
5675 5677 5679 5681 5682 5684 5685 5687 5688 5690 5691 5692 5693 5694 5695 5696 5697 5698 5699 5700 5701 5702 5703 5703 5704 5705 5706 5708 5709 5711 5712 5714 5715 5717 5718 5718 5719 5719 5719 5719 5718 5718 5717 5716
5666 5668 5669 5671 5673 5674 5676 5677 5678 5679 5681 5682 5683 5684 5685 5686 5687 5688 5689 5690 5691 5692 5693 5693 5694 5695 5697 5697 5698 5700 5702 5703 5704 5705 5706 5707 5707 5707 5707 5707 5707 5706 5705 5705
5657 5658 5660 5661 5663 5664 5666 5667 5668 5670 5671 5672 5673 5674 5674 5676 5677 5677 5678 5680 5681 5682 5682 5683 5684 5685 5686 5687 5688 5689 5690 5691 5692 5693 5694 5695 5695 5695 5695 5695 5695 5694 5693 5693
5647 5649 5650 5652 5653 5654 5655 5657 5658 5659 5660 5662 5663 5663 5664 5665 5666 5667 5668 5669 5670 5671 5671 5672 5673 5674 5675 5676 5676 5677 5678 5680 5681 5681 5682 5682 5683 5683 5683 5683 5682 5682 5681 5680
5638 5639 5640 5641 5643 5644 5645 5647 5648 5649 5650 5651 5653 5653 5654 5655 5656 5657 5658 5659 5659 5660 5661 5661 5662 5663 5664 5664 5665 5666 5667 5668 5669 5669 5670 5670 5670 5670 5670 5670 5670 5669 5669 5668
5627 5629 5630 5631 5632 5633 5634 5636 5637 5638 5640 5641 5642 5643 5643 5644 5645 5646 5647 5647 5648 5649 5649 5650 5651 5651 5652 5653 5654 5655 5655 5656 5656 5657 5657 5657 5657 5657 5657 5657 5657 5657 5656 5655
5617 5618 5619 5620 5621 5623 5624 5625 5627 5628 5629 5630 5631 5632 5632 5633 5634 5635 5636 5636 5637 5637 5638 5639 5639 5640 5641 5642 5642 5643 5643 5644 5644 5644 5644 5644 5644 5644 5644 5643 5643 5643 5643 5642
5608 5608 5609 5610 5611 5612 5613 5615 5616 5617 5618 5619 5620 5621 5621 5622 5622 5623 5624 5625 5625 5626 5626 5627 5628 5629 5630 5630 5631 5632 5632 5632 5633 5632 5632 5632 5632 5631 5631 5631 5630 5630 5629 5629
5598 5599 5599 5600 5601 5602 5603 5604 5605 5606 5607 5608 5609 5610 5610 5611 5611 5612 5613 5613 5614 5615 5615 5616 5617 5618 5618 5619 5620 5620 5621 5621 5621 5621 5620 5620 5619 5619 5618 5618 5617 5616 5615 5615
Wind_Speed
18 18 19 19 19 19 20 21 21 20 20 19 19 19 18 17 16 15 14 14 14 14 14 14 14 13 13 13 13 12 12 12 11 11 11 10 10 10 11 11 11 10 10 11
20 19 19 20 20 20 21 21 22 21 20 19 19 20 19 19 17 17 16 16 16 16 16 15 15 14 14 14 14 13 13 13 12 12 11 11 11 11 11 11 11 11 11 11
21 21 23 22 20 21 22 22 22 21 19 20 20 20 20 20 19 18 18 18 17 17 16 16 16 15 15 15 14 14 14 14 13 13 12 13 13 12 12 11 11 12 12 12
23 23 25 21 20 22 22 22 22 21 20 20 20 20 20 20 20 19 19 18 18 17 17 17 17 16 16 16 15 15 14 14 14 14 13 13 13 13 13 13 12 12 13 13
24 24 23 20 19 20 21 21 21 20 19 20 20 21 21 21 21 20 20 20 19 18 18 19 18 18 17 17 17 16 16 16 15 15 14 14 14 14 13 14 14 13 14 14
23 24 22 20 19 20 21 21 21 20 19 19 19 20 20 21 21 20 21 21 21 20 19 19 19 20 19 18 18 17 17 17 17 16 15 15 15 15 14 14 15 15 15 15
24 24 22 19 19 20 21 19 20 20 19 19 19 18 19 20 20 21 21 21 22 21 21 21 21 21 21 20 19 18 18 18 18 17 16 16 16 15 15 16 16 16 16 16
24 24 22 20 20 20 20 19 20 19 19 19 18 18 19 19 20 21 22 22 22 22 22 21 22 22 21 21 20 19 19 19 19 18 18 17 17 17 17 17 17 17 17 17
23 21 20 20 21 21 20 20 20 19 19 19 19 19 19 19 20 21 22 22 23 23 22 22 22 22 22 21 21 21 20 20 19 19 19 18 18 18 18 18 18 19 19 20
24 22 21 21 22 22 22 21 20 20 20 20 20 20 20 20 21 22 23 23 24 24 24 24 24 23 23 23 22 22 22 21 21 20 20 20 19 19 19 20 20 20 21 22
25 24 23 23 23 22 22 21 21 20 21 21 21 21 21 21 21 22 23 24 25 25 25 25 26 25 24 24 24 24 24 23 22 22 21 21 21 21 21 21 21 22 23 23
26 25 25 24 23 23 23 22 22 21 21 21 21 22 22 22 22 22 23 24 25 25 25 26 26 26 26 26 26 26 25 25 24 23 23 23 22 22 22 23 23 23 24 24
28 27 26 25 24 24 23 24 23 23 22 22 22 22 23 23 23 23 24 24 25 26 27 27 27 27 27 27 27 27 27 26 26 25 24 24 24 24 24 24 24 25 25 25
29 29 28 26 26 26 26 26 26 25 24 23 23 23 24 24 24 25 25 25 26 27 28 28 28 28 28 28 28 28 28 28 28 27 26 26 26 26 26 26 26 26 26 27
29 30 29 28 28 28 28 28 28 27 26 25 25 25 25 25 25 25 25 26 26 27 28 28 29 29 29 30 30 30 30 29 29 28 28 28 28 28 28 28 28 28 28 29
29 30 29 28 28 28 28 28 29 29 28 28 27 26 27 27 26 26 26 27 27 27 27 28 29 30 31 32 32 31 31 31 30 30 29 29 29 29 29 29 29 30 30 31
29 30 30 30 29 29 28 29 30 30 30 30 28 28 28 28 27 27 27 27 27 28 29 29 30 30 31 32 32 33 33 33 33 32 31 30 30 30 30 31 31 32 32 32
29 30 31 31 31 31 30 29 29 31 31 30 30 30 29 29 29 28 28 28 28 28 29 29 30 31 31 32 33 33 33 33 33 33 32 32 32 32 32 32 33 33 34 34
30 30 31 32 32 31 31 31 30 31 31 31 31 31 30 30 30 30 30 30 30 30 30 30 31 31 31 32 33 34 34 35 35 34 34 34 34 34 34 34 34 34 34 35
30 31 31 32 33 32 32 31 31 31 31 31 31 31 32 32 31 31 31 31 31 31 31 32 32 32 33 33 33 34 35 35 35 35 35 35 35 35 35 35 35 35 35 35
31 31 32 32 32 32 31 31 30 30 30 31 31 31 32 32 32 32 32 32 32 32 32 32 33 33 34 34 34 35 35 36 36 36 36 36 36 37 37 36 36 36 36 36
31 31 32 32 33 32 31 31 30 30 30 30 30 31 31 32 32 32 32 32 32 33 33 32 33 34 34 35 35 35 36 36 37 37 37 38 38 37 37 37 37 37 37 37
31 32 32 33 32 32 32 32 31 31 30 30 31 31 31 32 32 32 32 33 33 34 34 33 33 34 34 35 35 36 36 37 37 38 38 39 39 39 39 39 38 38 39 39
30 31 32 32 31 32 32 32 32 32 31 31 31 31 32 32 33 33 34 35 35 34 34 34 34 34 34 35 35 35 36 36 37 37 39 40 40 40 40 40 40 39 40 40
30 31 31 31 32 32 32 32 32 32 32 32 31 32 32 33 33 34 34 35 35 36 35 35 34 34 35 35 35 35 35 35 36 37 38 39 38 38 39 39 39 39 39 39
28 29 29 30 31 32 31 32 32 31 31 31 31 31 32 32 33 34 34 34 35 35 35 35 35 35 35 35 35 34 34 34 34 35 36 37 37 38 38 39 39 39 40 40
27 27 28 30 30 30 31 31 31 31 31 31 31 31 32 32 32 32 32 33 34 34 34 34 35 36 36 35 35 35 35 35 35 36 36 36 37 38 39 40 40 40 41 41
Wind_Direction
258 258 254 253 252 251 252 254 255 256 256 257 255 252 250 249 250 248 248 250 249 249 248 248 247 246 246 248 246 245 243 244 248 252 255 257 260 261 259 259 257 259 260 261
259 258 255 252 251 252 254 256 256 255 255 256 251 250 250 247 248 249 249 248 248 249 249 249 246 245 245 246 246 244 241 243 246 251 255 257 259 262 264 262 257 258 261 264
260 259 258 255 254 253 254 255 256 255 254 252 250 249 250 248 246 248 249 248 248 249 248 247 245 244 242 242 245 247 242 240 244 251 255 256 257 260 262 264 263 261 263 265
261 259 258 260 255 255 254 253 256 257 253 252 250 250 251 249 247 249 251 249 246 248 245 245 245 244 241 241 243 246 245 243 246 251 256 258 257 258 261 263 265 267 267 267
262 261 260 256 256 257 256 254 256 256 253 253 252 250 248 248 248 250 251 250 247 246 246 246 244 243 240 239 242 246 246 246 249 251 253 255 258 259 261 263 264 267 269 269
261 261 260 258 258 258 256 252 252 249 245 250 251 250 248 248 248 248 248 247 246 244 245 244 244 244 241 240 243 245 245 247 251 254 254 255 257 259 260 264 264 267 270 272
260 262 261 259 257 258 256 253 249 247 246 251 251 253 249 248 248 248 247 245 245 244 245 244 245 245 243 242 243 243 245 248 251 254 255 256 258 259 261 264 266 268 271 274
260 262 263 261 256 257 259 255 250 248 249 252 255 254 252 250 248 247 247 246 245 243 245 245 245 243 243 242 242 242 243 247 251 254 255 257 260 261 263 266 268 269 271 275
259 262 263 259 257 258 259 257 251 247 250 253 254 254 252 251 249 248 249 247 245 246 246 245 245 246 245 243 243 244 245 247 250 253 255 258 261 263 265 267 269 270 272 275
258 256 256 257 256 257 259 256 249 249 252 255 256 255 254 255 253 252 251 249 248 248 247 246 247 246 247 244 243 244 247 248 250 254 256 258 261 263 266 268 270 272 274 276
255 255 255 256 258 259 258 253 251 251 255 257 259 260 259 258 256 255 254 252 250 248 249 249 248 248 248 245 245 245 247 249 251 254 257 259 261 263 266 269 270 272 275 277
254 255 256 255 254 255 253 252 252 252 255 257 260 262 260 259 258 256 255 252 250 249 249 250 249 249 249 248 248 248 248 250 251 253 257 260 262 264 266 269 270 273 276 278
253 253 254 254 253 253 253 253 254 255 256 257 259 261 261 261 260 258 256 253 251 249 249 250 250 250 249 250 249 248 248 250 250 252 256 259 262 265 267 269 270 272 275 278
253 252 250 251 252 254 255 254 254 255 257 259 260 261 261 262 260 258 256 254 251 250 250 250 251 250 250 250 249 249 248 250 251 253 256 259 262 265 267 269 271 273 276 279
251 251 251 250 251 253 254 254 254 255 258 259 260 260 261 261 259 258 256 254 251 251 251 251 250 250 250 250 249 249 250 251 252 254 257 260 262 264 267 269 271 274 276 278
250 250 250 251 251 252 253 253 252 253 256 258 260 261 261 260 259 258 258 255 252 251 252 252 251 251 251 251 251 251 252 253 254 255 257 260 262 264 267 270 272 275 277 279
250 249 249 250 251 253 254 253 253 253 254 256 259 260 260 259 259 258 259 256 255 254 254 254 253 253 253 253 252 252 253 254 255 256 258 260 262 265 268 270 272 274 277 278
250 249 248 249 251 253 254 254 254 254 254 257 259 260 260 259 258 257 258 258 255 255 256 256 255 255 256 255 254 254 255 256 256 258 259 262 263 266 268 270 272 274 276 278
249 249 249 249 251 253 253 255 255 256 257 258 259 259 259 259 259 259 260 258 255 256 257 257 256 256 257 258 257 257 257 258 259 260 262 264 265 267 268 270 272 274 276 278
249 250 251 252 252 253 254 255 255 257 258 258 259 258 257 258 259 259 260 260 257 257 258 258 257 257 258 259 259 258 258 259 260 261 262 264 265 267 268 270 272 274 275 277
250 251 252 253 253 253 253 255 256 257 258 258 259 258 257 258 259 258 260 260 258 259 259 259 259 259 259 260 260 260 259 259 260 262 263 265 266 267 269 269 271 273 274 276
250 251 253 253 254 255 254 255 256 257 257 258 259 260 259 259 259 259 260 259 259 259 260 259 260 261 261 260 260 260 260 260 261 262 264 266 266 267 269 270 271 272 274 275
251 252 253 254 255 256 255 255 255 255 257 258 259 261 261 260 259 259 260 260 260 260 260 260 260 261 261 260 260 261 261 261 262 263 264 265 266 268 269 270 271 272 272 273
253 254 254 254 254 254 254 253 254 255 257 258 259 260 261 260 260 260 261 261 262 262 261 260 260 260 260 261 262 262 262 263 263 264 265 267 268 269 269 269 270 270 272 273
255 255 256 256 255 255 255 254 254 254 256 258 260 260 261 261 260 261 262 263 263 263 261 259 259 260 262 263 263 263 263 264 265 267 268 269 269 269 270 271 271 271 272 273
257 257 256 256 256 256 256 256 256 256 257 258 260 261 262 262 261 261 261 262 261 262 262 259 258 260 261 262 263 263 265 266 267 269 270 269 269 270 271 272 272 272 273 274
258 258 257 257 257 257 256 256 257 258 258 259 260 261 262 261 261 260 260 261 261 262 262 263 261 259 259 261 262 264 266 267 268 270 271 272 272 272 273 274 273 273 274 275